Regional Weather Roundup
Issued by NWS

Home | Current Version | Previous Version | Text Only | Print | Product List | Glossary On
Versions: 1 2 3 4 5 6 7 8 9 10 11 12 13 14 15 16 17 18 19 20 21 22 23 24 25 26 27 28 29 30 31 32 33 34 35 36 37 38 39 40 41 42 43 44 45 46 47 48 49 50
000
ASUS43 KLOT 262110
RWRIL

ILLINOIS REGIONAL WEATHER ROUNDUP
NATIONAL WEATHER SERVICE CHICAGO/ROMEOVILLE IL
300 PM CST WED NOV 26 2014

NOTE: "FAIR" INDICATES FEW OR NO CLOUDS BELOW 12,000 FEET WITH NO
SIGNIFICANT WEATHER AND/OR OBSTRUCTIONS TO VISIBILITY.

* THESE STATIONS ARE NOT UNDER NWS QUALITY CONTROL. THEY ALSO MAY NOT
  REPORT WEATHER SUCH AS PRECIPITATION OR FOG.

ILZ001-002-007-009-015-016-024-262200-
NORTHWEST ILLINOIS

CITY           SKY/WX    TMP DP  RH WIND       PRES   REMARKS
MOLINE         CLOUDY    29  24  82 E15       30.07R HAZE    WCI  18
STERLING*      CLOUDY    28  21  74 E10       30.10S WCI  19
SAVANNA*       CLOUDY    29  24  81 E7        30.11S WCI  22
$$

ILZ003-004-008-010-011-017-018-262200-
NORTH CENTRAL ILLINOIS

CITY           SKY/WX    TMP DP  RH WIND       PRES   REMARKS
ROCKFORD       CLOUDY    26  19  74 E6        30.14R WCI  19
FREEPORT*      CLOUDY    26  21  81 E9        30.13R WCI  16
ROCHELLE*      CLOUDY    25  20  82 E7        30.12R WCI  17
DE KALB*       CLOUDY    25  19  78 SE3       30.11R
PERU*          CLOUDY    28  23  80 SE8       30.11R WCI  20
$$

ILZ005-006-012>014-019>023-262200-
NORTHEAST ILLINOIS

CITY           SKY/WX    TMP DP  RH WIND       PRES   REMARKS
CHICAGO-OHARE  CLOUDY    28  20  71 E8        30.10S WCI  20
CHICAGO-MIDWAY CLOUDY    29  19  66 E6        30.12R WCI  23
AURORA         CLOUDY    28  18  66 E5        30.11R WCI  23
LANSING*       CLOUDY    28  20  74 SE3       30.11F
JOLIET*        CLOUDY    26  20  76 NE3       30.12R
WAUKEGAN       CLOUDY    29  23  78 CALM      30.11R
DUPAGE AIRPORT CLOUDY    27  19  72 SE7       30.10R WCI  19
KANKAKEE*      CLOUDY   N/A N/A N/A NE5       30.11S
WHEELING       CLOUDY    29  21  72 VRB5      30.13R WCI  24
MORRIS*        CLOUDY    28  24  82 E8        30.10S WCI  20
ROMEOVILLE*    CLOUDY    26  20  76 E3        30.12R
NORTHERLY ISL    N/A     27  21  78 SE6         N/A  WCI  21
$$

LMZ740>746-262200-
SOUTHERN LAKE MICHIGAN

STATION/POSITION SKY/WX   TEMP    WIND        PRES    VSBY  WAVE
                          AIR SEA DIR/SP/G                  HT/PER
                          (F)     (DEG/KT/KT) (MB)    (MI)  (FT/S)
SOUTHERN BUOY              31 42  130/  4/  8 1020.8R         1/ 4
WAUKEGAN HARBOR            29     360/  3/  4   N/A
HARRISON CRIB              27     120/  6/  9   N/A
BURNHAM HARBOR             27     130/  6/  8   N/A
CALUMET HARBOR             27      60/  3/  5 1018.6S
MICHIGAN CITY              27      70/  3/  4   N/A
$$

ILZ025>027-034>036-040-047-049-050-058-095>099-262200-
WEST-CENTRAL ILLINOIS

CITY           SKY/WX    TMP DP  RH WIND       PRES   REMARKS
QUINCY         MIX PCPN  32  30  92 E12       29.98R FOG     WCI  23
GALESBURG*     LGT SNOW  30  28  93 E12G18    30.03R WCI  21
MACOMB*        LGT SNOW  31  31  99 E14       30.03R WCI  21
JACKSONVILLE*  LGT SNOW  34  32  93 SE8       30.01R VSB 3/4 WCI  27
PITTSFIELD*    CLOUDY    33  32  96 E5        30.00R WCI  29
$$

ILZ028>032-037-038-041>044-048-051>054-059>061-262200-
CENTRAL ILLINOIS

CITY           SKY/WX    TMP DP  RH WIND       PRES   REMARKS
PONTIAC        CLOUDY    29  24  82 E9        30.10S WCI  21
BLOOMINGTON    CLOUDY    28  25  89 E10       30.07R WCI  19
DECATUR        LGT SNOW  29  26  89 E12       30.06R VSB 1   WCI  19
PEORIA         LGT SNOW  31  25  78 E10       30.06S WCI  22
LACON*         CLOUDY    28  23  79 E9        30.08S WCI  20
LINCOLN*       LGT SNOW  31  29  92 E13       30.07S VSB 1   WCI  21
SPRINGFIELD    LGT SNOW  32  30  92 E13       30.02S FOG     WCI  22
TAYLORVILLE    LGT SNOW  32  30  93 E13       30.02S WCI  22
$$

ILZ033-039-045-046-055>057-062-063-262200-
EAST-CENTRAL ILLINOIS

CITY           SKY/WX    TMP DP  RH WIND       PRES   REMARKS
CHAMPAIGN      PTSUNNY   29  24  82 E9        30.06S WCI  20
DANVILLE*      CLOUDY    31  24  74 NE6       30.04S WCI  25
RANTOUL*       CLOUDY    31  24  75 E6        30.07S WCI  25
MATTOON        CLOUDY    29  24  82 E5        30.04S WCI  24
PARIS*         MOSUNNY   33  26  76 CALM      30.06S
$$

ILZ079-100>102-262200-
SOUTHWEST ILLINOIS

CITY           SKY/WX    TMP DP  RH WIND       PRES   REMARKS
ALTON          SNOW      32  32 100 E6        30.01R VSB 1/2 WCI  26
BELLEVILLE     SNOW      32  32 100 NE1       30.01R VSB 1/2
CAHOKIA*       SNOW      33  32  96 CALM      30.01R VSB 1/4
SPARTA*        SNOW      32  32  99 CALM      30.00R VSB 1/2
$$

ILZ064>066-069>071-074>076-080>082-084>086-088>090-092>094-262200-
SOUTH-CENTRAL ILLINOIS

CITY           SKY/WX    TMP DP  RH WIND       PRES   REMARKS
CARBONDALE     RAIN      35  32  88 SE8       29.99R FOG     WCI  29
CAIRO*         DRIZZLE   42  34  74 S10       30.00R
EFFINGHAM*     LGT SNOW  34  26  74 E7        30.04S WCI  27
MARION         LGT RAIN  37  34  87 SE9       30.00R WCI  31
MT. VERNON     CLOUDY    37  28  70 E8        30.01S WCI  31
CENTRALIA*     LGT SNOW  35  30  83 E8        30.00S WCI  28
SALEM*         LGT SNOW  37  31  77 E3        30.01S
METROPOLIS*    LGT RAIN  41  36  84 SE6         N/A
$$

ILZ067-068-072-073-078-083-087-091-262200-
SOUTHEAST ILLINOIS

CITY           SKY/WX    TMP DP  RH WIND       PRES   REMARKS
LAWRENCEVILLE  MOSUNNY   39  27  62 E3        30.04F
FLORA*         MOSUNNY   35  29  78 E6        30.03R WCI  30
FAIRFIELD*     CLOUDY    37  28  68 E6        30.02R WCI  33
HARRISBURG*    CLOUDY    39  31  72 E6        30.01S
ROBINSON*      MOSUNNY   35  28  73 E5        30.06S WCI  31
CARMI*         CLOUDY    40  32  72 E7        30.01S
$$

ABBREVIATIONS USED IN REMARKS
   TC - TEMPERATURE IN CELSIUS
  WCI - WIND CHILL INDEX
   HX - HEAT INDEX
  VSB - VISIBILITY
$$



USA.gov is the U.S. government's official web portal to all federal, state and local government web resources and services.